Burlington, WA
on Monday, December 31, 2012

Monday
Previous Day Next Day
Daily Summary
 ActualAverage (KBLI)Record (KBLI)
Temperature
Mean Temperature °F 38°F  
Max Temperature 39°F 44°F 60°F (1963)
Min Temperature 32°F 32°F 9°F (1951)
Degree Days
Heating Degree Days 30 27  
Month to date heating degree days 827  
Cooling Degree Days 0 0  
Month to date cooling degree days 0  
Year to date cooling degree days 42  
Moisture
Dew Point 34°F   
Average Humidity 99    
Maximum Humidity 100    
Minimum Humidity 93    
Precipitation
Precipitation 0.00 in 0.12 in 1.55 in (1953)
Month to date precipitation 4.22  
Year to date precipitation 35.83  
Wind
Wind Speed 3 mph   
Max Wind Speed 12 mph   
Max Gust Speed mph   
Visibility 8 miles   
Events     

Key: T is trace of precipitation, MM is missing value
Source: NWS Daily Summary
Time(PST)TemperatureDew PointHumidity Pressure Visibility Wind DirectionWind SpeedGust SpeedPrecipitationEvents Conditions
12:15 AM 32.0°F 32.0°F 100% 30.31 in 0.2 miles Calm Calm - 0.00 in   Overcast
12:35 AM 32.0°F 32.0°F 100% 30.31 in 0.2 miles Calm Calm - 0.00 in   Overcast
12:55 AM 32.0°F 32.0°F 100% 30.31 in 0.5 miles Calm Calm - 0.00 in   Overcast
1:15 AM 32.0°F 32.0°F 100% 30.31 in 0.2 miles Calm Calm - 0.00 in   Overcast
1:35 AM 32.0°F 32.0°F 100% 30.31 in 0.2 miles Calm Calm - 0.00 in   Overcast
1:55 AM 32.0°F 32.0°F 100% 30.31 in 0.5 miles Calm Calm - 0.00 in   Overcast
2:15 AM 32.0°F 32.0°F 100% 30.32 in 0.8 miles Calm Calm - 0.00 in   Overcast
2:35 AM 32.0°F 32.0°F 100% 30.32 in 1.5 miles Calm Calm - 0.00 in   Mostly Cloudy
3:15 AM 32.0°F 32.0°F 100% 30.31 in 5.0 miles East 3.5 mph - 0.00 in   Scattered Clouds
3:55 AM 32.0°F 32.0°F 100% 30.30 in 6.0 miles Calm Calm - 0.00 in   Overcast
4:15 AM 32.0°F 32.0°F 100% 30.29 in 9.0 miles Calm Calm - 0.00 in   Overcast
4:55 AM 33.8°F 33.8°F 100% 30.28 in 10.0 miles ENE 5.8 mph - 0.00 in   Overcast
5:15 AM 33.8°F 33.8°F 100% 30.28 in 10.0 miles NE 5.8 mph - 0.00 in   Overcast
5:35 AM 32.0°F 32.0°F 100% 30.27 in 10.0 miles NE 6.9 mph - 0.00 in   Overcast
5:55 AM 33.8°F 33.8°F 100% 30.27 in 10.0 miles NE 9.2 mph - 0.00 in   Overcast
6:15 AM 33.8°F 33.8°F 100% 30.27 in 10.0 miles NE 6.9 mph - 0.00 in   Overcast
6:35 AM 33.8°F 32.0°F 93% 30.27 in 10.0 miles NE 5.8 mph - 0.00 in   Overcast
6:55 AM 33.8°F 32.0°F 93% 30.27 in 10.0 miles NE 5.8 mph - 0.00 in   Overcast
7:15 AM 33.8°F 32.0°F 93% 30.28 in 10.0 miles NE 6.9 mph - 0.00 in   Overcast
7:35 AM 33.8°F 32.0°F 93% 30.28 in 10.0 miles North 4.6 mph - 0.00 in   Overcast
7:55 AM 33.8°F 32.0°F 93% 30.29 in 10.0 miles NE 3.5 mph - 0.00 in   Overcast
8:15 AM 33.8°F 32.0°F 93% 30.29 in 10.0 miles NNE 3.5 mph - 0.00 in   Overcast
8:35 AM 33.8°F 33.8°F 100% 30.30 in 8.0 miles Calm Calm - 0.00 in   Overcast
8:55 AM 33.8°F 33.8°F 100% 30.31 in 8.0 miles Calm Calm - 0.00 in   Overcast
9:15 AM 33.8°F 33.8°F 100% 30.31 in 7.0 miles Calm Calm - 0.00 in   Overcast
9:35 AM 33.8°F 33.8°F 100% 30.32 in 7.0 miles Calm Calm - 0.00 in   Overcast
9:55 AM 33.8°F 33.8°F 100% 30.33 in 8.0 miles Calm Calm - 0.00 in   Scattered Clouds
10:15 AM 35.6°F 33.8°F 93% 30.33 in 7.0 miles Calm Calm - 0.00 in   Mostly Cloudy
10:55 AM 35.6°F 35.6°F 100% 30.34 in 7.0 miles Calm Calm - 0.00 in   Partly Cloudy
11:15 AM 35.6°F 35.6°F 100% 30.35 in 8.0 miles Calm Calm - 0.00 in   Partly Cloudy
11:35 AM 35.6°F 35.6°F 100% 30.35 in 7.0 miles Calm Calm - 0.00 in   Mostly Cloudy
11:55 AM 35.6°F 33.8°F 93% 30.35 in 8.0 miles Calm Calm - 0.00 in   Mostly Cloudy
12:15 PM 35.6°F 35.6°F 100% 30.35 in 7.0 miles Calm Calm - 0.00 in   Mostly Cloudy
12:35 PM 37.4°F 35.6°F 93% 30.34 in 6.0 miles Calm Calm - 0.00 in   Overcast
12:55 PM 37.4°F 37.4°F 100% 30.33 in 8.0 miles North 4.6 mph - 0.00 in   Scattered Clouds
1:15 PM 37.4°F 37.4°F 100% 30.33 in 8.0 miles North 6.9 mph - 0.00 in   Clear
1:35 PM 37.4°F 37.4°F 100% 30.33 in 8.0 miles North 5.8 mph - 0.00 in   Partly Cloudy
1:55 PM 39.2°F 39.2°F 100% 30.34 in 8.0 miles NW 3.5 mph - 0.00 in   Partly Cloudy
2:15 PM 39.2°F 39.2°F 100% 30.33 in 8.0 miles WNW 3.5 mph - 0.00 in   Partly Cloudy
2:35 PM 39.2°F 37.4°F 93% 30.33 in 7.0 miles NW 3.5 mph - 0.00 in   Scattered Clouds
3:15 PM 39.2°F 37.4°F 93% 30.35 in 8.0 miles NW 6.9 mph - 0.00 in   Mostly Cloudy
3:35 PM 39.2°F 37.4°F 93% 30.35 in 9.0 miles NNW 6.9 mph - 0.00 in   Overcast
3:55 PM 37.4°F 37.4°F 100% 30.36 in 8.0 miles NNW 6.9 mph - 0.00 in   Overcast
4:15 PM 37.4°F 37.4°F 100% 30.37 in 8.0 miles NNW 6.9 mph - 0.00 in   Overcast
4:35 PM 37.4°F 35.6°F 93% 30.37 in 8.0 miles NW 6.9 mph - 0.00 in   Overcast
4:55 PM 35.6°F 35.6°F 100% 30.37 in 10.0 miles NNW 8.1 mph - 0.00 in   Overcast
5:15 PM 35.6°F 35.6°F 100% 30.36 in 10.0 miles NW 9.2 mph - 0.00 in   Scattered Clouds
5:35 PM 35.6°F 35.6°F 100% 30.36 in 10.0 miles NW 10.4 mph - 0.00 in   Clear
5:55 PM 35.6°F 35.6°F 100% 30.37 in 10.0 miles NW 10.4 mph - 0.00 in   Clear
6:15 PM 35.6°F 35.6°F 100% 30.37 in 10.0 miles NNW 11.5 mph - 0.00 in   Clear
6:35 PM 35.6°F 35.6°F 100% 30.39 in 10.0 miles NNW 8.1 mph - 0.00 in   Clear
6:55 PM 35.6°F 35.6°F 100% 30.39 in 10.0 miles NNW 5.8 mph - 0.00 in   Clear
7:15 PM 35.6°F 35.6°F 100% 30.40 in 9.0 miles Calm Calm - 0.00 in   Partly Cloudy
7:35 PM 33.8°F 33.8°F 100% 30.40 in 10.0 miles East 5.8 mph - 0.00 in   Clear
7:55 PM 33.8°F 33.8°F 100% 30.42 in 9.0 miles Calm Calm - 0.00 in   Scattered Clouds
8:15 PM 32.0°F 32.0°F 100% 30.41 in 8.0 miles Calm Calm - 0.00 in   Partly Cloudy
8:35 PM 32.0°F 32.0°F 100% 30.42 in 8.0 miles Calm Calm - 0.00 in   Clear
8:55 PM 32.0°F 32.0°F 100% 30.42 in 8.0 miles NNW 3.5 mph - 0.00 in   Clear
9:15 PM 32.0°F 32.0°F 100% 30.43 in 9.0 miles North 4.6 mph - 0.00 in   Clear
9:35 PM 32.0°F 32.0°F 100% 30.43 in 10.0 miles ENE 5.8 mph - 0.00 in   Clear
9:55 PM 32.0°F 32.0°F 100% 30.44 in 8.0 miles ENE 8.1 mph - 0.00 in   Clear
10:15 PM 32.0°F 32.0°F 100% 30.45 in 9.0 miles NE 5.8 mph - 0.00 in   Clear
10:35 PM 32.0°F 32.0°F 100% 30.45 in 9.0 miles Calm Calm - 0.00 in   Clear
10:55 PM 32.0°F 32.0°F 100% 30.47 in 8.0 miles WNW 3.5 mph - 0.00 in   Mostly Cloudy
11:15 PM 32.0°F 32.0°F 100% 30.47 in 7.0 miles Calm Calm - 0.00 in   Overcast
11:35 PM 32.0°F 32.0°F 100% 30.47 in 8.0 miles ENE 3.5 mph - 0.00 in   Overcast
11:55 PM 32.0°F 32.0°F 100% 30.48 in 7.0 miles Calm Calm - 0.00 in   Overcast
Moon Phase
Dec. 31 Jan. 04 Jan. 11 Jan. 18 Jan. 26
Sunrise:08:01 AM (PST) Moon Rise:08:19 PM (PST)12/31
Sunset:04:24 PM (PST) Moon Set:09:29 AM (PST)12/31

Copyright © 2014 The Weather Underground, Inc.